Regional Weather Roundup
Issued by NWS

Home | Current Version | Previous Version | Graphics & Text | Print | Product List | Glossary On
Versions: 1 2 3 4 5 6 7 8 9 10 11 12 13 14 15 16 17 18 19 20 21 22 23 24 25 26 27
000
ASUS45 KSLC 061810
RWRUT

UTAH REGIONAL WEATHER ROUNDUP
NATIONAL WEATHER SERVICE SALT LAKE CITY UT
1100 AM MST TUE DEC 06 2016

UTZ001>011-023>025-061900-

NORTHERN UTAH

CITY           SKY/WX    TMP DP  RH WIND       PRES   REMARKS
BRIGHAM CITY     N/A     23   8  52 CALM      29.87F
DUGWAY         MOSUNNY   30   3  31 SW2       29.85F
HILL AFB       PTSUNNY   20   3  47 E13       29.83F WCI   7
LOGAN          CLOUDY   N/A N/A N/A N3        29.88F
OGDEN          CLOUDY    23   8  52 N8        29.84F WCI  14
SALT LAKE CITY PTSUNNY   30  13  49 N6        29.83F WCI  24
TOOELE VALLEY  MOSUNNY   30  14  51 N3        29.85S
WENDOVER       PTSUNNY   25   9  50 CALM      29.86F
HEBER CITY     SUNNY     21   5  49 CALM      29.80F
WEST JORDAN    CLOUDY    31  16  52 SE5       29.82F WCI  26

$$

UTZ011>015-024>027-061900-

CENTRAL/NORTHEAST UTAH

CITY           SKY/WX    TMP DP  RH WIND       PRES   REMARKS
PROVO AIRPORT  SUNNY     27  11  51 VRB3      29.84F
MOAB/CANYONLAN CLOUDY    34   4  28 CALM      29.84F
DELTA          SUNNY     25   5  42 SW6       29.83F WCI  18
PRICE          SUNNY     27   6  41 SE5       29.81F WCI  22
ROOSEVELT      SUNNY     28  -8  20 CALM      29.89F
VERNAL         SUNNY     24  -8  24 SE3       29.87F

$$

UTZ013>016-019>022-027-061900-

SOUTHERN UTAH

CITY           SKY/WX    TMP DP  RH WIND       PRES   REMARKS
BRYCE CANYON   PTSUNNY   34  12  40 SW17      29.81F WCI  23
CEDAR CITY     SUNNY     31  16  54 W6        29.82F WCI  25
MILFORD        SUNNY     30   8  39 S17       29.80F WCI  18
ST GEORGE      CLEAR     43  21  42 S3        29.90S
HANKSVILLE     SUNNY     30   9  40 CALM      29.90F
BLANDING       PTSUNNY   36  17  45 CALM      29.91F

$$

REGIONAL REPORTS     COLORADO/ARIZONA

CITY           SKY/WX    TMP DP  RH WIND       PRES   REMARKS
CRAIG, CO      CLOUDY    18  -2  41 E15       29.85F WCI   4
GRAND JUNCTION CLOUDY    29   7  39 SE6       29.84F WCI  23
RIFLE, CO      CLOUDY    25   7  46 E3        29.86F
MONTROSE, CO   CLOUDY    28   8  43 VRB6      29.86F WCI  22
CORTEZ, CO     CLOUDY    39  21  48 W6        29.84F WCI  35
COLORADO CITY  CLOUDY    50  19  29 S5        29.90S
PAGE, AZ       PTSUNNY   45  18  34 N5        29.83F
GRAND CANYON   PTSUNNY   37  19  48 SW20G25   29.91F WCI  27
KINGMAN, AZ    MOSUNNY   57  15  19 SW21      29.89S
FLAGSTAFF, AZ  SUNNY     38  18  44 SW25G33   29.93S WCI  27

$$

REGIONAL REPORTS    NEVADA/IDAHO/WYOMING

CITY           SKY/WX    TMP DP  RH WIND       PRES   REMARKS
LAS VEGAS, NV  MOSUNNY   53  17  24 W3        29.87S
ELY, NY        SUNNY     38   3  23 SW13      29.76F WCI  30
ELKO, NV       MOSUNNY   24  14  65 SW3       29.82F
POCATELLO, ID  CLOUDY    18   7  62 NE9       29.86F WCI   7
BURLEY, ID     CLOUDY    19  14  81 E8        29.84F WCI   9
FORT BRIDGER,  CLOUDY     3  -5  69 CALM      29.82F
EVANSTON, WY   CLOUDY    10  -4  53 E9        29.75F WCI  -3
ROCK SPRINGS,  MOSUNNY    7  -6  55 CALM      29.82F

$$




USA.gov is the U.S. government's official web portal to all federal, state and local government web resources and services.